DECAYED

OBJECT K, 58471 (Decayed)

Orbit data source: Space-Track

You're viewing an Uncataloged Satellite

Recently launched and/or uncataloged satellites may have evolving metadata. Metadata may include but not limited to: Owner, Maufacturer, Bus, Motor, and Mission.

OBJECT K, 58471 was a satellite in LEO that was launched on Fri, 01 Dec 2023 UTC via an FALCON 9 launch vehicle from the Air Force Western Test Range (AFWTR). Unknown objects in Earth's orbit typically refer to objects detected orbiting the Earth but have not yet been identified or cataloged. These objects could be anything from previously untracked satellites, spent rocket stages, debris from satellite collisions, or even natural meteoroids temporarily captured by Earth's gravity. This object's orbit decayed before it could be identified.

Not visible in the next 10 days
Identifier
58471, 2023-185K
Orbit
Decayed
Country
Flag of TBDTBD
Related business
Flag of AMBAZOOMQ Space Research Lab (AM)
Manufacturer
NPUA/BAZMQ
Mission
Decayed Amateur Technology
Bus & Motor
CUBESAT 1U, Unknown motor
Mass
1 kg wet, 1 kg dry
Launch date (UTC)
2023-12-01 (2 years ago)
Launch vehicle
FALCON 9
Launch site
Air Force Western Test Range (AFWTR)
Object type
Unknown
Shape & HBR
Box, 0.1 m
Radar Cross Section
0.015 m², Small (<0.1 m²)

Expand to show TLE details & history
Last TLE update: 6 months ago

TLE from 6 months ago
0 OBJECT K
1 58471U 23185K   25114.86339687  .10095164  24939-5  11708-2 0  9994
2 58471  97.3435 194.4543 0015215 263.2900  96.6666 16.36438907 78320
Epoch: 2025-04-24T20:43Z
TLE epoch observation values (Epoch: 2025-04-24T20:43:17.489Z)
Latitude
-0.00005°
Longitude
30.50271°
Altitude
179.714 km
Speed
7.798 km/s
True Right ascension
12h 57m 49s
True Declination
0° 00' 00"
Sunlit
Object was in full shadow at epoch
Visualization orbit readout
Latitude
Unknown
Longitude
Unknown
Altitude
Unknown
Speed
Unknown
Apparent Right ascension
Unknown
Apparent Declination
Unknown
Sunlit
N/A
Visualization observer readout
Local Sidereal Time
07:35:50
Azimuth
Unknown
Elevation
Unknown
Doppler factor
Unknown
Orbital elements
Apogee altitude
182.069 km
Perigee altitude
162.136 km
Semi-major axis
6,550.239 km
Eccentricity
0.00152
Inclination
97.3435°
RAAN
194.4543°
Arg. of periapsis
263.29°
True anomaly
96.83973°
Mean anomaly
96.6666°
Eccentric anomaly
96.75317°
Mean motion
4.09409 °/min
Orbital period
87.93 mins
BSTAR
0.0011708
Loading maneuver chart data...
Computing Atmospheric mass density...
Loading historical data...
Loading historical data...
Loading historical data...
Loading historical data...
Loading historical data...
Loading historical data...
Loading historical data...

Documentation

Showing up to 5 results
|